GW2134 Weather Reports


time (UTC)temp
C
wind
direction
speed
KPH
gust
KPH
rain 1hr
cm
rain 24hr
cm
rain mn
cm
humidity
%
barometer
mb
20260502163056 20 211 1.6 6.4 0.00 0.00 0.00 31 1024.3
20260502161549 20 118 1.6 9.7 0.00 0.00 0.00 37 1024.4
20260502151604 21 280 1.6 12.9 0.00 0.00 0.00 35 1024.7
20260502123053 20 211 8.0 16.1 0.00 0.00 0.00 35 1026.4
20260502121555 20 55 4.8 16.1 0.00 0.00 0.00 36 1026.5
20260502114607 20 169 6.4 12.9 0.00 0.00 0.00 36 1026.9
20260502113052 20 102 3.2 14.5 0.00 0.00 0.00 36 1027.1
20260502111556 19 117 8.0 19.3 0.00 0.00 0.00 37 1027.3
20260502110055 19 126 3.2 9.7 0.00 0.00 0.00 36 1027.6
20260502104720 19 80 4.8 12.9 0.00 0.00 0.00 36 1027.7
20260502104554 19 80 4.8 12.9 0.00 0.00 0.00 36 1027.7
20260502103055 18 311 1.6 11.3 0.00 0.00 0.00 37 1027.9
20260502101623 18 117 4.8 16.1 0.00 0.00 0.00 37 1028.2
20260502090108 17 190 3.2 9.7 0.00 0.00 0.00 39 1028.6
20260502080107 15 165 4.8 12.9 0.00 0.00 0.00 43 1028.6
20260502070059 14 108 0.0 4.8 0.00 0.00 0.00 46 1028.8
20260502064555 13 0 1.6 6.4 0.00 0.00 0.00 52 1028.8
20260502063057 13 355 0.0 3.2 0.00 0.00 0.00 47 1028.8
20260502061550 12 0 0.0 1.6 0.00 0.00 0.00 56 1028.8
20260502060051 11 0 0.0 1.6 0.00 0.00 0.00 54 1028.9
20260502054558 10 0 0.0 3.2 0.00 0.00 0.00 55 1028.9
20260502053052 10 0 0.0 0.0 0.00 0.00 0.00 55 1028.8
20260502051604 10 0 0.0 4.8 0.00 0.00 0.00 56 1028.7
20260502050054 9 0 0.0 4.8 0.00 0.00 0.00 55 1028.7
20260502044552 8 0 0.0 3.2 0.00 0.00 0.00 54 1028.7
20260502043103 8 19 1.6 6.4 0.00 0.00 0.00 53 1028.6
20260502041600 8 0 0.0 4.8 0.00 0.00 0.00 53 1028.6
20260502040059 8 0 0.0 8.0 0.00 0.00 0.00 52 1028.7
20260502034553 9 327 0.0 6.4 0.00 0.00 0.00 51 1028.7
20260502033059 9 330 3.2 11.3 0.00 0.00 0.00 50 1028.6
20260502031555 9 0 0.0 8.0 0.00 0.00 0.00 48 1028.7
20260502030105 9 343 3.2 8.0 0.00 0.00 0.00 49 1028.8
20260502024741 8 360 3.2 4.8 0.00 0.00 0.00 49 1028.8
20260502024553 8 360 3.2 4.8 0.00 0.00 0.00 49 1028.8
20260502023120 8 360 3.2 4.8 0.00 0.00 0.00 50 1028.8
20260502021557 8 20 1.6 4.8 0.00 0.00 0.00 50 1028.8
20260502020106 8 0 0.0 1.6 0.00 0.00 0.00 50 1028.9
20260502014554 8 286 0.0 3.2 0.00 0.00 0.00 50 1028.9
20260502013104 8 0 0.0 3.2 0.00 0.00 0.00 50 1028.9
20260502011554 8 0 0.0 6.4 0.00 0.00 0.00 49 1029.0
20260502010052 8 0 1.6 4.8 0.00 0.00 0.00 49 1029.0
20260502004618 8 321 0.0 6.4 0.00 0.00 0.00 49 1029.1
20260502003057 8 350 3.2 8.0 0.00 0.00 0.00 48 1029.1
20260502001605 8 338 4.8 8.0 0.00 0.00 0.00 48 1029.2
20260501234606 8 0 0.0 1.6 0.00 0.00 0.00 49 1029.4
20260501233058 8 360 0.0 4.8 0.00 0.00 0.00 49 1029.4
20260501231553 8 9 0.0 6.4 0.00 0.00 0.00 50 1029.3
20260501230051 9 0 0.0 8.0 0.00 0.00 0.00 51 1029.2
20260501224556 9 355 1.6 6.4 0.00 0.00 0.00 51 1029.2
20260501223053 9 334 1.6 4.8 0.00 0.00 0.00 51 1029.2
20260501221554 9 71 0.0 3.2 0.00 0.00 0.00 50 1029.2
20260501220134 10 0 0.0 4.8 0.00 0.00 0.00 49 1029.0
20260501214553 10 0 0.0 6.4 0.00 0.00 0.00 49 1028.8
20260501213101 10 302 3.2 8.0 0.00 0.00 0.00 49 1028.9
20260501211554 10 0 3.2 12.9 0.00 0.00 0.00 48 1028.9
20260501210110 9 11 0.0 8.0 0.00 0.00 0.00 48 1028.8
20260501204559 9 23 3.2 9.7 0.00 0.00 0.00 51 1028.8
20260501203056 9 24 6.4 14.5 0.00 0.00 0.00 50 1028.7
20260501201556 9 360 6.4 12.9 0.00 0.00 0.00 49 1028.7
20260501200055 9 299 6.4 12.9 0.00 0.00 0.00 49 1028.6
20260501194553 9 284 6.4 11.3 0.00 0.00 0.00 48 1028.5
20260501193055 10 297 4.8 12.9 0.00 0.00 0.00 47 1028.4
20260501191602 10 306 8.0 12.9 0.00 0.00 0.00 48 1028.2
20260501190104 10 342 8.0 12.9 0.00 0.00 0.00 48 1028.2
20260501184751 10 303 3.2 12.9 0.00 0.00 0.00 48 1028.0
20260501184553 10 303 3.2 12.9 0.00 0.00 0.00 48 1028.0
20260501183104 11 325 6.4 11.3 0.00 0.00 0.00 47 1027.8
20260501181606 11 327 4.8 12.9 0.00 0.00 0.00 39 1027.8
20260501180101 12 333 4.8 8.0 0.00 0.00 0.00 42 1027.7
20260501174601 12 9 4.8 8.0 0.00 0.00 0.00 39 1027.7
20260501173100 12 317 3.2 8.0 0.00 0.00 0.00 39 1027.7